Overview Statistics Trail Chart Weather Telemetry Raw packets
 

This is the latest recevied weather packets stored in our database for station/object WW5JC. If no packets are shown the sender has not sent any weather packets the latest 10 day(s).

<< 8 9 10 11 12 13 14 >>
Time Temp. Humidity Pressure Rain* Wind** Luminosity Snow
1788572196 31.11° C 58% 1014 hPa 0 mm - 0 W/m² -
1788571892 31.67° C 58% 1014 hPa 0 mm - 0 W/m² -
1788571592 31.67° C 57% 1014.1 hPa 0 mm - 0 W/m² -
1788571289 31.67° C 57% 1014.1 hPa 0 mm - 0 W/m² -
1788570984 31.67° C 56% 1014.1 hPa 0 mm - 0 W/m² -
1788570680 32.22° C 55% 1013.9 hPa 0 mm - 0 W/m² -
1788570375 32.22° C 55% 1013.7 hPa 0 mm - 0 W/m² -
1788570071 32.78° C 54% 1013.8 hPa 0 mm - 0 W/m² -
1788569767 32.78° C 54% 1013.9 hPa 0 mm - 0 W/m² -
1788569461 32.78° C 53% 1013.8 hPa 0 mm - 1 W/m² -
1788569156 33.33° C 53% 1013.8 hPa 0 mm - 2 W/m² -
1788568855 33.33° C 51% 1013.7 hPa 0 mm - 4 W/m² -
1788568547 33.33° C 51% 1013.9 hPa 0 mm - 7 W/m² -
1788568243 33.89° C 50% 1013.6 hPa 0 mm - 10 W/m² -
1788567938 33.89° C 50% 1013.5 hPa 0 mm - 13 W/m² -
1788567638 34.44° C 49% 1013.4 hPa 0 mm - 16 W/m² -
1788567333 34.44° C 49% 1013.3 hPa 0 mm - 19 W/m² -
1788567032 34.44° C 48% 1013.4 hPa 0 mm - 22 W/m² -
1788566728 35° C 47% 1013.5 hPa 0 mm - 25 W/m² -
1788566424 35° C 47% 1013.5 hPa 0 mm - 29 W/m² -
1788566118 35.56° C 46% 1013.5 hPa 0 mm - 32 W/m² -
1788565813 35.56° C 46% 1013.5 hPa 0 mm - 36 W/m² -
1788565512 35.56° C 46% 1013.4 hPa 0 mm - 44 W/m² -
1788565209 35.56° C 45% 1013.4 hPa 0 mm - 55 W/m² -
1788564904 35.56° C 45% 1013.5 hPa 0 mm - 53 W/m² -

* Rain latest hour (hover to see other rain measurements)
** Current wind speed in m/s (hover to see current wind gust speed)